Change the Weather History Date:

Wednesday, April 9, 2014

  Actual Average (KAQP) Record (KAQP)
Temperature  
Mean Temperature 56 °F -  
Max Temperature 80 °F 49 °F 80 °F (2014)
Min Temperature 33 °F 29 °F 8 °F (1997)
Degree Days  
Heating Degree Days 8    
Growing Degree Days 6 (Base 50)    
Moisture  
Dew Point 32 °F    
Average Humidity 43    
Maximum Humidity 81    
Minimum Humidity 16    
Precipitation  
Precipitation 0.00 in - - ()
Sea Level Pressure  
Sea Level Pressure 29.65 in    
Wind  
Wind Speed 10 mph (SW)    
Max Wind Speed 28 mph    
Max Gust Speed 39 mph    
Visibility 10 miles    
Events Rain    
Averages and records for this station are not official NWS values.
T = Trace of Precipitation, MM = Missing Value Source: NWS Daily Summary

Daily Weather History Graph

Daily Weather History Graph

Search for Another Location

Airport or City:

Trip Planner

Search our weather history database for the weather conditions in past years. The results will help you decide how hot, cold, wet, or windy it might be!

Date:

Astronomy

Apr. 09, 2014 Rise Set
Actual Time 6:51 AM CDT 8:04 PM CDT
Civil Twilight 6:20 AM CDT 8:34 PM CDT
Nautical Twilight 5:44 AM CDT 9:11 PM CDT
Astronomical Twilight 5:05 AM CDT 9:49 PM CDT
Moon 2:39 PM CDT (4/9) 3:55 AM CDT (4/9)
Length of Visible Light 14h 13m
Length of Day
13h 12m
Waxing Gibbous, 72% of the Moon is Illuminated
Apr 9
Waxing Gibbous
Apr 15
Full
Apr 22
Last Quarter
Apr 29
New
May 6
First Quarter

Hourly Weather History & Observations

Time (CDT) Temp. Windchill Dew Point Humidity Pressure Visibility Wind Dir Wind Speed Gust Speed Precip Events Conditions
12:14 AM 37.4 °F 30.8 °F 28.4 °F 70% 29.90 in 10.0 mi SSE 9.2 mph - N/A   Clear
12:34 AM 35.6 °F 29.2 °F 28.4 °F 75% 29.89 in 10.0 mi South 8.1 mph - N/A   Clear
12:53 AM 35.6 °F 29.9 °F 28.4 °F 75% 29.88 in 10.0 mi SSE 6.9 mph - N/A   Clear
1:14 AM 33.8 °F 27.7 °F 28.4 °F 81% 29.88 in 10.0 mi SSE 6.9 mph - N/A   Clear
1:34 AM 33.8 °F 27.7 °F 28.4 °F 81% 29.88 in 10.0 mi SSE 6.9 mph - N/A   Clear
1:53 AM 33.8 °F 27.7 °F 28.4 °F 81% 29.87 in 10.0 mi SSE 6.9 mph - N/A   Mostly Cloudy
2:14 AM 37.4 °F 32.1 °F 28.4 °F 70% 29.86 in 10.0 mi SSE 6.9 mph - N/A   Mostly Cloudy
2:34 AM 35.6 °F 30.7 °F 28.4 °F 75% 29.84 in 10.0 mi SSE 5.8 mph - N/A   Mostly Cloudy
2:53 AM 35.6 °F 29.9 °F 28.4 °F 75% 29.83 in 10.0 mi SSE 6.9 mph - N/A   Mostly Cloudy
3:14 AM 35.6 °F 29.2 °F 28.4 °F 75% 29.82 in 10.0 mi SSE 8.1 mph - N/A   Mostly Cloudy
3:34 AM 35.6 °F 29.9 °F 28.4 °F 75% 29.81 in 10.0 mi SSE 6.9 mph - N/A   Mostly Cloudy
3:54 AM 35.6 °F 29.9 °F 28.4 °F 75% 29.81 in 10.0 mi SSE 6.9 mph - N/A   Mostly Cloudy
4:14 AM 39.2 °F 32.5 °F 26.6 °F 61% 29.79 in 10.0 mi South 10.4 mph - N/A   Scattered Clouds
4:33 AM 41.0 °F 35.2 °F 26.6 °F 57% 29.78 in 10.0 mi South 9.2 mph - N/A   Scattered Clouds
4:54 AM 42.8 °F 37.5 °F 24.8 °F 49% 29.77 in 10.0 mi South 9.2 mph - N/A   Clear
5:14 AM 42.8 °F 38.0 °F 24.8 °F 49% 29.76 in 10.0 mi SSE 8.1 mph - N/A   Clear
5:33 AM 42.8 °F 38.0 °F 24.8 °F 49% 29.74 in 10.0 mi South 8.1 mph - N/A   Clear
5:54 AM 42.8 °F 39.3 °F 24.8 °F 49% 29.73 in 10.0 mi South 5.8 mph - N/A   Clear
6:14 AM 44.6 °F 39.7 °F 24.8 °F 46% 29.72 in 10.0 mi South 9.2 mph - N/A   Clear
6:33 AM 42.8 °F 38.0 °F 26.6 °F 53% 29.71 in 10.0 mi South 8.1 mph - N/A   Clear
6:54 AM 42.8 °F 40.1 °F 26.6 °F 53% 29.71 in 10.0 mi South 4.6 mph - N/A   Clear
7:14 AM 42.8 °F 38.0 °F 26.6 °F 53% 29.70 in 10.0 mi SW 8.1 mph - N/A   Clear
7:34 AM 42.8 °F 38.6 °F 26.6 °F 53% 29.70 in 10.0 mi SSW 6.9 mph - N/A   Clear
7:54 AM 44.6 °F 40.2 °F 28.4 °F 53% 29.69 in 10.0 mi SSW 8.1 mph - N/A   Clear
8:14 AM 44.6 °F 40.7 °F 28.4 °F 53% 29.69 in 10.0 mi SSW 6.9 mph - N/A   Clear
8:34 AM 46.4 °F 42.4 °F 28.4 °F 50% 29.69 in 10.0 mi SSW 8.1 mph - N/A   Clear
8:54 AM 46.4 °F 42.4 °F 30.2 °F 53% 29.68 in 10.0 mi SSW 8.1 mph - N/A   Clear
9:13 AM 48.2 °F - 30.2 °F 50% 29.67 in 10.0 mi SSW 6.9 mph - N/A   Clear
9:34 AM 51.8 °F - 32.0 °F 47% 29.66 in 10.0 mi SW 5.8 mph - N/A   Clear
9:54 AM 53.6 °F - 32.0 °F 44% 29.65 in 10.0 mi SW 6.9 mph - N/A   Clear
10:14 AM 57.2 °F - 33.8 °F 41% 29.65 in 10.0 mi SW 9.2 mph - N/A   Clear
10:34 AM 57.2 °F - 33.8 °F 41% 29.64 in 10.0 mi WSW 9.2 mph - N/A   Clear
10:54 AM 60.8 °F - 33.8 °F 36% 29.64 in 10.0 mi SW 10.4 mph - N/A   Clear
11:14 AM 62.6 °F - 35.6 °F 37% 29.63 in 10.0 mi WSW 9.2 mph - N/A   Clear
11:34 AM 64.4 °F - 35.6 °F 34% 29.62 in 10.0 mi West 10.4 mph - N/A   Clear
11:53 AM 66.2 °F - 35.6 °F 32% 29.61 in 10.0 mi SW 5.8 mph - N/A   Clear
12:14 PM 68.0 °F - 37.4 °F 33% 29.60 in 10.0 mi WSW 6.9 mph - N/A   Clear
12:34 PM 69.8 °F - 35.6 °F 28% 29.59 in 10.0 mi West 11.5 mph 16.1 mph N/A   Clear
12:53 PM 71.6 °F - 35.6 °F 27% 29.58 in 10.0 mi WSW 16.1 mph 20.7 mph N/A   Clear
1:14 PM 73.4 °F - 35.6 °F 25% 29.57 in 10.0 mi WSW 12.7 mph 21.9 mph N/A   Clear
1:34 PM 75.2 °F - 35.6 °F 24% 29.56 in 10.0 mi WSW 17.3 mph 23.0 mph N/A   Clear
1:54 PM 75.2 °F - 35.6 °F 24% 29.56 in 10.0 mi WSW 11.5 mph - N/A   Clear
2:13 PM 77.0 °F - 33.8 °F 21% 29.55 in 10.0 mi West 15.0 mph 21.9 mph N/A   Clear
2:34 PM 78.8 °F - 33.8 °F 20% 29.54 in 10.0 mi West 17.3 mph 26.5 mph N/A   Clear
2:54 PM 78.8 °F - 33.8 °F 20% 29.54 in 10.0 mi West 15.0 mph 27.6 mph N/A   Clear
3:13 PM 78.8 °F - 33.8 °F 20% 29.53 in 10.0 mi West 16.1 mph 23.0 mph N/A   Clear
3:34 PM 78.8 °F - 33.8 °F 20% 29.53 in 10.0 mi WSW 15.0 mph 24.2 mph N/A   Clear
3:54 PM 77.0 °F - 33.8 °F 21% 29.52 in 10.0 mi West 15.0 mph 18.4 mph N/A   Clear
4:13 PM 78.8 °F - 33.8 °F 20% 29.51 in 10.0 mi West 10.4 mph - N/A   Clear
4:34 PM 80.6 °F - 32.0 °F 17% 29.50 in 10.0 mi West 19.6 mph 26.5 mph N/A   Clear
4:54 PM 80.6 °F - 32.0 °F 17% 29.49 in 10.0 mi West 16.1 mph 23.0 mph N/A   Clear
5:14 PM 80.6 °F - 30.2 °F 16% 29.48 in 10.0 mi West 20.7 mph 24.2 mph N/A   Clear
5:34 PM 80.6 °F - 30.2 °F 16% 29.49 in 10.0 mi West 18.4 mph 26.5 mph N/A   Clear
5:54 PM 78.8 °F - 30.2 °F 17% 29.48 in 10.0 mi West 19.6 mph 27.6 mph N/A   Clear
6:14 PM 78.8 °F - 30.2 °F 17% 29.48 in 10.0 mi West 15.0 mph 20.7 mph N/A   Clear
6:34 PM 77.0 °F - 32.0 °F 19% 29.48 in 10.0 mi West 10.4 mph 18.4 mph N/A   Clear
6:53 PM 75.2 °F - 33.8 °F 22% 29.47 in 10.0 mi West 8.1 mph - N/A   Clear
7:14 PM 73.4 °F - 33.8 °F 23% 29.48 in 10.0 mi West 6.9 mph - N/A   Scattered Clouds
7:34 PM 73.4 °F - 33.8 °F 23% 29.48 in 10.0 mi West 17.3 mph 25.3 mph N/A   Scattered Clouds
7:53 PM 71.6 °F - 33.8 °F 25% 29.48 in 10.0 mi West 10.4 mph - N/A   Clear
8:14 PM 69.8 °F - 33.8 °F 27% 29.49 in 10.0 mi West 10.4 mph 17.3 mph N/A   Clear
8:34 PM 66.2 °F - 35.6 °F 32% 29.51 in 10.0 mi NW 18.4 mph 25.3 mph N/A   Clear
8:53 PM 64.4 °F - 35.6 °F 34% 29.53 in 10.0 mi NW 17.3 mph 24.2 mph N/A   Clear
9:14 PM 64.4 °F - 37.4 °F 37% 29.55 in 10.0 mi NNW 19.6 mph 25.3 mph N/A   Clear
9:34 PM 60.8 °F - 39.2 °F 45% 29.57 in 10.0 mi NNW 17.3 mph 21.9 mph N/A   Clear
9:54 PM 60.8 °F - 41.0 °F 48% 29.59 in 10.0 mi NNW 23.0 mph 32.2 mph N/A   Clear
10:14 PM 57.2 °F - 39.2 °F 51% 29.62 in 10.0 mi NNW 25.3 mph 33.4 mph N/A   Clear
10:34 PM 55.4 °F - 37.4 °F 51% 29.64 in 10.0 mi NNW 24.2 mph 35.7 mph N/A   Clear
10:54 PM 53.6 °F - 37.4 °F 54% 29.65 in 10.0 mi NNW 27.6 mph 39.1 mph N/A   Clear
11:14 PM 51.8 °F - 35.6 °F 54% 29.67 in 10.0 mi NNW 21.9 mph 35.7 mph N/A   Scattered Clouds
11:34 PM 51.8 °F - 37.4 °F 58% 29.68 in 10.0 mi NNW 18.4 mph 29.9 mph N/A   Scattered Clouds
11:54 PM 48.2 °F - 39.2 °F 71% 29.68 in 10.0 mi NNW 17.3 mph 23.0 mph N/A Rain Rain